Homerville, GA

9:37 AM EST on February 22, 2017 (GMT -0500)
Homerville

Weather History for KHOE - January, 2013

Change the Weather History Date:

Thursday, January 3, 2013

  Actual Average Record
Temperature  
Mean Temperature 50 °F -  
Max Temperature 55 °F 62 °F 80 °F (2015)
Min Temperature 42 °F 41 °F 19 °F (1979)
Degree Days  
Heating Degree Days 16    
Moisture  
Dew Point 48 °F    
Average Humidity 92    
Maximum Humidity 100    
Minimum Humidity 71    
Precipitation  
Precipitation 0.00 in - - ()
Sea Level Pressure  
Sea Level Pressure 30.18 in    
Wind  
Wind Speed 2 mph (NNW)    
Max Wind Speed 7 mph    
Max Gust Speed -    
Visibility 9 miles    
Events Rain    
Averages and records for this station are not official NWS values.
T = Trace of Precipitation, MM = Missing Value Source: NWS Daily Summary

Daily Weather History Graph

Daily Weather History Graph

Search for Another Location

Airport or City:

Trip Planner

Search our weather history database for the weather conditions in past years. The results will help you decide how hot, cold, wet, or windy it might be!

Date:

Astronomy

Jan. 03, 2013 Rise Set
Actual Time 7:29 AM EST 5:41 PM EST
Civil Twilight 7:03 AM EST 6:08 PM EST
Nautical Twilight 6:33 AM EST 6:38 PM EST
Astronomical Twilight 6:03 AM EST 7:07 PM EST
Moon 11:48 PM EST (1/3) 11:06 AM EST (1/3)
Length of Visible Light 11h 04m
Length of Day
10h 11m
Waning Gibbous, 65% of the Moon is Illuminated
Jan 3
Waning Gibbous
Jan 4
Last Quarter
Jan 11
New
Jan 18
First Quarter
Jan 26
Full

Hourly Weather History & Observations

Time (EST) Temp. Windchill Dew Point Humidity Pressure Visibility Wind Dir Wind Speed Gust Speed Precip Events Conditions
12:15 AM 55.4 °F - 55.4 °F 100% 30.10 in 10.0 mi Calm Calm - N/A   Scattered Clouds
12:35 AM 53.6 °F - 53.6 °F 100% 30.10 in 1.2 mi Calm Calm - N/A   Mist
12:55 AM 53.6 °F - 53.6 °F 100% 30.09 in 10.0 mi Calm Calm - N/A   Mostly Cloudy
1:15 AM 53.6 °F - 53.6 °F 100% 30.09 in 7.0 mi Calm Calm - N/A   Mostly Cloudy
1:35 AM 53.6 °F - 53.6 °F 100% 30.09 in 7.0 mi Calm Calm - N/A   Mostly Cloudy
1:55 AM 51.8 °F - 51.8 °F 100% 30.09 in 10.0 mi Calm Calm - N/A   Overcast
2:15 AM 53.6 °F - 53.6 °F 100% 30.09 in 10.0 mi Calm Calm - N/A   Overcast
2:35 AM 53.6 °F - 53.6 °F 100% 30.09 in 10.0 mi Calm Calm - N/A   Overcast
2:55 AM 53.6 °F - 53.6 °F 100% 30.10 in 10.0 mi NNW 3.5 mph - N/A   Overcast
3:15 AM 53.6 °F - 53.6 °F 100% 30.10 in 10.0 mi Calm Calm - N/A   Overcast
3:35 AM 53.6 °F - 53.6 °F 100% 30.10 in 10.0 mi Calm Calm - N/A   Overcast
3:55 AM 53.6 °F - 53.6 °F 100% 30.09 in 10.0 mi Calm Calm - N/A   Overcast
4:15 AM 53.6 °F - 53.6 °F 100% 30.10 in 10.0 mi NNW 3.5 mph - N/A   Overcast
4:35 AM 53.6 °F - 53.6 °F 100% 30.10 in 10.0 mi NNW 4.6 mph - N/A   Overcast
4:55 AM 53.6 °F - 53.6 °F 100% 30.11 in 10.0 mi NNW 5.8 mph - N/A   Overcast
5:15 AM 53.6 °F - 51.8 °F 94% 30.12 in 10.0 mi NNW 4.6 mph - N/A   Overcast
5:35 AM 53.6 °F - 51.8 °F 94% 30.13 in 10.0 mi NNW 5.8 mph - N/A   Overcast
5:55 AM 53.6 °F - 50.0 °F 88% 30.13 in 10.0 mi North 4.6 mph - N/A   Overcast
6:15 AM 53.6 °F - 50.0 °F 88% 30.14 in 10.0 mi North 6.9 mph - N/A   Mostly Cloudy
6:35 AM 53.6 °F - 48.2 °F 82% 30.14 in 10.0 mi North 5.8 mph - N/A   Overcast
6:55 AM 51.8 °F - 48.2 °F 88% 30.15 in 10.0 mi North 3.5 mph - N/A   Overcast
7:15 AM 51.8 °F - 46.4 °F 82% 30.15 in 10.0 mi Calm Calm - N/A   Mostly Cloudy
7:35 AM 51.8 °F - 46.4 °F 82% 30.15 in 10.0 mi NNW 3.5 mph - N/A   Scattered Clouds
8:15 AM 51.8 °F - 44.6 °F 76% 30.16 in 10.0 mi NNE 3.5 mph - N/A   Overcast
8:35 AM 51.8 °F - 44.6 °F 76% 30.18 in 10.0 mi North 3.5 mph - N/A Rain Light Rain
8:55 AM 51.8 °F - 44.6 °F 76% 30.18 in 10.0 mi North 3.5 mph - N/A   Light Drizzle
9:15 AM 51.8 °F - 44.6 °F 76% 30.20 in 10.0 mi NNW 3.5 mph - N/A   Overcast
9:55 AM 51.8 °F - 42.8 °F 71% 30.21 in 10.0 mi North 4.6 mph - N/A   Overcast
10:15 AM 50.0 °F - 42.8 °F 76% 30.22 in 10.0 mi NW 3.5 mph - N/A Rain Light Rain
10:35 AM 50.0 °F - 42.8 °F 76% 30.22 in 10.0 mi NNW 4.6 mph - N/A   Drizzle
10:55 AM 50.0 °F - 42.8 °F 76% 30.22 in 10.0 mi North 4.6 mph - N/A   Light Drizzle
11:15 AM 50.0 °F - 42.8 °F 76% 30.22 in 10.0 mi NNW 3.5 mph - N/A   Overcast
11:35 AM 50.0 °F - 42.8 °F 76% 30.21 in 10.0 mi North 4.6 mph - N/A   Overcast
11:55 AM 50.0 °F - 42.8 °F 76% 30.20 in 10.0 mi North 4.6 mph - N/A   Overcast
12:15 PM 50.0 °F - 42.8 °F 76% 30.18 in 10.0 mi North 4.6 mph - N/A   Overcast
12:35 PM 50.0 °F - 42.8 °F 76% 30.18 in 10.0 mi North 3.5 mph - N/A   Overcast
12:55 PM 50.0 °F - 42.8 °F 76% 30.18 in 10.0 mi NNW 3.5 mph - N/A   Overcast
1:15 PM 50.0 °F - 44.6 °F 82% 30.18 in 10.0 mi North 3.5 mph - N/A   Light Drizzle
1:35 PM 50.0 °F - 44.6 °F 82% 30.18 in 10.0 mi NNW 4.6 mph - N/A   Light Drizzle
1:55 PM 48.2 °F - 46.4 °F 93% 30.16 in 7.0 mi NNE 3.5 mph - N/A Rain Light Rain
2:15 PM 48.2 °F - 46.4 °F 93% 30.17 in 10.0 mi NNW 4.6 mph - N/A Rain Rain
2:35 PM 48.2 °F - 46.4 °F 93% 30.18 in 7.0 mi NNW 3.5 mph - N/A Rain Light Rain
2:55 PM 48.2 °F - 46.4 °F 93% 30.18 in 7.0 mi Calm Calm - N/A Rain Light Rain
3:15 PM 48.2 °F - 46.4 °F 93% 30.18 in 7.0 mi Calm Calm - N/A Rain Light Rain
3:35 PM 48.2 °F - 48.2 °F 100% 30.19 in 10.0 mi NW 3.5 mph - N/A Rain Light Rain
3:55 PM 48.2 °F - 48.2 °F 100% 30.19 in 7.0 mi Calm Calm - N/A Rain Rain
4:15 PM 48.2 °F - 48.2 °F 100% 30.20 in 10.0 mi NNW 5.8 mph - N/A Rain Rain
4:35 PM 46.4 °F - 46.4 °F 100% 30.21 in 10.0 mi Calm Calm - N/A Rain Light Rain
4:55 PM 46.4 °F - 46.4 °F 100% 30.21 in 10.0 mi Calm Calm - N/A Rain Light Rain
5:15 PM 46.4 °F - 46.4 °F 100% 30.21 in 10.0 mi Calm Calm - N/A Rain Light Rain
5:55 PM 48.2 °F - 48.2 °F 100% 30.20 in 10.0 mi Calm Calm - N/A   Light Drizzle
6:15 PM 48.2 °F - 48.2 °F 100% 30.22 in 10.0 mi Calm Calm - N/A   Overcast
6:35 PM 48.2 °F - 48.2 °F 100% 30.23 in 10.0 mi NNW 3.5 mph - N/A   Overcast
6:55 PM 48.2 °F - 48.2 °F 100% 30.24 in 10.0 mi NNW 6.9 mph - N/A   Light Drizzle
7:15 PM 48.2 °F - 48.2 °F 100% 30.24 in 10.0 mi Calm Calm - N/A   Overcast
7:35 PM 46.4 °F - 46.4 °F 100% 30.23 in 10.0 mi Calm Calm - N/A   Overcast
7:55 PM 46.4 °F 43.5 °F 46.4 °F 100% 30.26 in 10.0 mi NNW 5.8 mph - N/A   Overcast
8:15 PM 46.4 °F - 46.4 °F 100% 30.26 in 10.0 mi Calm Calm - N/A   Overcast
8:35 PM 46.4 °F - 46.4 °F 100% 30.26 in 10.0 mi Calm Calm - N/A   Overcast
8:55 PM 46.4 °F 45.2 °F 46.4 °F 100% 30.26 in 10.0 mi North 3.5 mph - N/A   Scattered Clouds
9:15 PM 46.4 °F 44.3 °F 46.4 °F 100% 30.27 in 10.0 mi NNW 4.6 mph - N/A   Scattered Clouds
9:35 PM 46.4 °F - 46.4 °F 100% 30.26 in 10.0 mi Calm Calm - N/A   Scattered Clouds
9:55 PM 46.4 °F 44.3 °F 46.4 °F 100% 30.27 in 10.0 mi NNW 4.6 mph - N/A   Scattered Clouds
10:15 PM 46.4 °F - 44.6 °F 93% 30.26 in 10.0 mi Calm Calm - N/A   Clear
10:35 PM 44.6 °F - 44.6 °F 100% 30.27 in 10.0 mi Calm Calm - N/A   Clear
10:55 PM 44.6 °F - 44.6 °F 100% 30.26 in 7.0 mi Calm Calm - N/A   Clear
11:15 PM 44.6 °F - 44.6 °F 100% 30.28 in 7.0 mi Calm Calm - N/A   Clear
11:35 PM 44.6 °F - 44.6 °F 100% 30.28 in 7.0 mi Calm Calm - N/A   Clear
11:55 PM 42.8 °F - 42.8 °F 100% 30.28 in 7.0 mi Calm Calm - N/A   Clear